Regional Weather Roundup
Issued by NWS Green Bay, WI

Home | Current Version | Previous Version | Text Only | Print | Product List | Glossary On
Versions: 1 2 3 4 5 6 7 8 9 10 11 12 13 14 15 16 17 18 19 20 21 22 23 24 25 26 27 28 29 30 31 32 33 34 35 36 37 38 39 40 41 42 43 44 45 46 47 48 49 50
699
ASUS43 KGRB 240500
RWRGRB

NORTH-CENTRAL AND NORTHEAST WISCONSIN REGIONAL WEATHER ROUNDUP
NATIONAL WEATHER SERVICE GREEN BAY WI
1200 AM CDT TUE APR 24 2018

WIZ005-009-010>012-018-019-240600-
NORTH CENTRAL WISCONSIN

CITY           SKY/WX    TMP DP  RH WIND       PRES   REMARKS
IRONWOOD       FAIR      37  30  75 CALM      30.12S
MANITOWISH WTR NOT AVBL
ARBOR VITAE    NOT AVBL
EAGLE RIVER    FAIR      34  25  70 CALM      30.12S
LAND O LAKES   FAIR      31  24  74 CALM      30.14S
RHINELANDER    FAIR      37  28  70 CALM      30.13S
PHILLIPS       FAIR      34  29  82 CALM      30.13S
ANTIGO         NOT AVBL
TOMAHAWK       NOT AVBL
MERRILL        NOT AVBL
$$

WIZ013-073-240600-
NORTHEAST WISCONSIN

CITY           SKY/WX    TMP DP  RH WIND       PRES   REMARKS
IRON MOUNTAIN  FAIR      39  29  67 CALM      30.11F
MARINETTE      FAIR      37  31  78 CALM      30.15S
$$

WIZ017-030-035>037-045-240600-
CENTRAL WISCONSIN

CITY           SKY/WX    TMP DP  RH WIND       PRES   REMARKS
MEDFORD        NOT AVBL
WAUSAU         FAIR      41  30  65 CALM      30.12S
MOSINEE        NOT AVBL
MARSHFIELD     FAIR      44  30  57 CALM      30.12S
WISC RAPIDS    FAIR      40  25  55 CALM      30.13F
STEVENS POINT  NOT AVBL
WAUPACA        FAIR      41  32  70 CALM      30.13F
SHAWANO        FAIR      39  32  76 CALM      30.14R
CLINTONVILLE   FAIR      39  29  68 CALM      30.13S
WAUTOMA        FAIR      37  28  70 CALM      30.13F
$$

WIZ038-039-048-051-240600-
FOX VALLEY

CITY           SKY/WX    TMP DP  RH WIND       PRES   REMARKS
NWS GREEN BAY  FAIR      47  31  53 CALM      30.13S
APPLETON       NOT AVBL
OSHKOSH        FAIR      48  33  56 CALM      30.12F
FOND DU LAC    FAIR      41  35  79 CALM      30.12F
$$

WIZ022-050-052-240600-
EAST CENTRAL WISCONSIN

CITY           SKY/WX    TMP DP  RH WIND       PRES   REMARKS
EPHRAIM        NOT AVBL
WASHINGTON ISL NOT AVBL
STURGEON BAY   FAIR      41  30  65 E3        30.13F
MANITOWOC      FAIR      45  31  58 NW5       30.13F
SHEBOYGAN      FAIR      46  28  49 N6        30.11F
$$

LMZ563-521-522-541>543-240600-
LAKESHORE

STATION/POSITION TIME  TEMP    WIND        PRES    VSBY  WAVE
                       AIR SEA DIR/SP/G                  HT/PER
                 (UTC) (F)     (DEG/KT/KT) (MB)    (MI)  (FT/S)
SHEBOYGAN LKSHOR 0400   46     360/ 12/ 15 1020.1F
KEWAUNEE LKSHORE 0430   45     350/  1/  2 1019.4F
NORTHPORT PIER   0440   39                 1020.3F
SISTER BAY LKSHO 0427   40        CALM       N/A
MENOMINEE LKSHOR 0430   35      20/  3/  4 1020.2S
$$




USA.gov is the U.S. government's official web portal to all federal, state and local government web resources and services.